{"data":{"norad_id":62203,"epoch":"2026-09-21T00:21:05.645952Z","epoch_age_seconds":133750,"freshness":"FRESH","line1":"1 62203U 24229M   26264.01464868  .00002746  00000+0  10930-3 0  9993","line2":"2 62203  43.0016 247.6399 0001125 267.9494  92.1229 15.27564332100430","mean_motion":15.27564332,"eccentricity":0.0001125,"inclination_deg":43.0016,"raan_deg":247.6399,"arg_perigee_deg":267.9494,"mean_anomaly_deg":92.1229,"bstar":0.0001093,"rev_number":10043,"period_min":94.267715593663,"perigee_km":482.32412335533,"apogee_km":483.86790078305,"semimajor_km":6861.2330120692,"source":"CELESTRAK","updated_at":"2026-09-22T09:00:49.541121Z"}}